Location: Newark
(36.9100°N, 76.7100°W)
Time: 14:00:46
(UTC+00:00)

X-37B - Visible Passes

Search period start: 23 September 2020 00:00
Search period end: 03 October 2020 00:00
Orbit: 386 x 387 km, 45.0° (Epoch: 18 September)

Date Brightness Start Highest point End Pass type
(mag) Time Alt. Az. Time Alt. Az. Time Alt. Az.
23 Sep 1.1 09:32:12 33° NW 09:33:21 55° NNE 09:36:29 10° ESE visible
24 Sep 3.7 08:36:46 16° E 08:36:46 16° E 08:37:37 10° E visible
24 Sep 1.2 10:09:04 15° W 10:11:19 37° SW 10:14:18 10° SE visible
25 Sep 1.6 09:13:47 41° SE 09:13:47 41° SE 09:15:58 10° SE visible
26 Sep 2.3 09:50:58 19° SSW 09:50:58 19° SSW 09:52:58 10° S visible
01 Oct 1.7 00:03:54 10° SSW 00:06:26 27° SSE 00:06:26 27° SSE visible
02 Oct 2.2 00:41:25 10° WSW 00:43:20 33° WSW 00:43:20 33° WSW visible
02 Oct 0.7 23:42:55 10° SW 23:46:01 57° SSE 23:47:47 23° ENE visible
